Simultaneous Nadir Overpasses (SNOs) Predictions

Prediction of SNOs between GOES-16 and NPP Satellite Orbit:

Table of predicted SNOs for the next 14.0 days since TLE Epoch: 4/6/2024
Index Date Time (GOES-16) GOES-16 Lat,Lon NPP Lat,Lon Distance(km) Time Diff (sec)
1 04/07/2024 18:27:26 0.01, -75.22 -0.14, -75.87 74.17 80
2 04/08/2024 18:11:22 0.01, -75.23 0.86, -71.34 442.75 80
3 04/10/2024 06:33:10 -0.01, -75.24 0.31, -76.61 157.16 80
4 04/11/2024 06:11:46 -0.01, -75.24 -0.75, -72.09 359.87 80
5 04/12/2024 18:33:43 0.01, -75.26 -0.49, -77.39 243.14 80
6 04/13/2024 18:17:38 0.01, -75.27 0.52, -72.86 274.35 80
7 04/15/2024 06:39:27 -0.00, -75.29 0.64, -78.14 324.45 80
8 04/16/2024 06:18:02 -0.00, -75.31 -0.36, -73.61 193.36 80
9 04/17/2024 18:39:59 -0.00, -75.34 -0.80, -78.92 408.46 80
10 04/18/2024 18:23:55 -0.00, -75.36 0.21, -74.39 110.01 80
